TimeEST,TemperatureF,Dew PointF,Humidity,Sea Level PressureIn,VisibilityMPH,Wind Direction,Wind SpeedMPH,Gust SpeedMPH,PrecipitationIn,Events,Conditions,WindDirDegrees,DateUTC
12:15 AM,64.0,57.4,79,29.85,10.0,SSW,16.1,27.6,N/A,,Overcast,200,2012-12-04 05:15:00
12:35 AM,64.2,57.2,78,29.85,10.0,SSW,18.4,26.5,N/A,,Overcast,200,2012-12-04 05:35:00
12:55 AM,64.4,57.2,77,29.84,10.0,SSW,16.1,25.3,N/A,,Overcast,200,2012-12-04 05:55:00
1:15 AM,64.0,57.2,78,29.84,10.0,SSW,17.3,24.2,N/A,,Overcast,200,2012-12-04 06:15:00
1:35 AM,64.4,57.2,77,29.84,10.0,SSW,17.3,21.9,N/A,,Overcast,210,2012-12-04 06:35:00
1:55 AM,64.6,57.4,77,29.84,10.0,SSW,11.5,23.0,N/A,,Overcast,210,2012-12-04 06:55:00
2:15 AM,64.4,57.4,78,29.84,10.0,SSW,18.4,24.2,N/A,,Overcast,210,2012-12-04 07:15:00
2:35 AM,64.9,57.6,77,29.85,10.0,SSW,15.0,24.2,N/A,,Overcast,210,2012-12-04 07:35:00
2:55 AM,64.8,57.7,78,29.85,10.0,SW,16.1,26.5,N/A,,Overcast,220,2012-12-04 07:55:00
3:15 AM,64.8,57.9,78,29.86,10.0,SW,13.8,19.6,N/A,,Overcast,230,2012-12-04 08:15:00
3:55 AM,64.4,58.1,80,29.86,10.0,SW,11.5,18.4,N/A,,Overcast,220,2012-12-04 08:55:00
4:15 AM,64.0,58.1,81,29.85,10.0,SW,8.1,18.4,N/A,,Overcast,220,2012-12-04 09:15:00
4:35 AM,63.1,58.5,85,29.85,10.0,SSW,9.2,-,N/A,,Overcast,210,2012-12-04 09:35:00
4:55 AM,60.6,58.3,92,29.87,10.0,West,15.0,21.9,N/A,,Overcast,260,2012-12-04 09:55:00
5:15 AM,59.5,58.1,95,29.87,10.0,West,11.5,-,N/A,,Overcast,260,2012-12-04 10:15:00
5:35 AM,58.5,56.7,94,29.89,7.0,West,10.4,19.6,N/A,,Light Drizzle,270,2012-12-04 10:35:00
5:55 AM,57.0,54.1,90,29.89,7.0,WNW,12.7,20.7,N/A,Rain,Rain,290,2012-12-04 10:55:00
6:15 AM,55.9,53.6,92,29.90,7.0,West,10.4,-,N/A,Rain,Rain,280,2012-12-04 11:15:00
6:35 AM,55.0,52.9,92,29.91,7.0,West,11.5,17.3,N/A,,Overcast,280,2012-12-04 11:35:00
6:55 AM,54.3,51.8,91,29.92,7.0,WNW,9.2,-,N/A,,Drizzle,290,2012-12-04 11:55:00
7:16 AM,53.1,50.2,90,29.93,10.0,West,11.5,-,N/A,,Light Drizzle,270,2012-12-04 12:16:00
7:35 AM,51.8,48.7,89,29.94,10.0,West,9.2,-,N/A,Rain,Rain,280,2012-12-04 12:35:00
7:55 AM,51.1,49.1,93,29.96,7.0,West,9.2,-,N/A,Rain,Light Rain,280,2012-12-04 12:55:00
8:15 AM,50.5,48.2,92,29.97,10.0,West,8.1,-,N/A,Rain,Light Rain,260,2012-12-04 13:15:00
8:35 AM,50.0,47.3,90,29.99,10.0,WSW,9.2,-,N/A,Rain,Rain,250,2012-12-04 13:35:00
8:55 AM,49.3,46.8,91,29.99,7.0,WSW,8.1,-,N/A,Rain,Light Rain,250,2012-12-04 13:55:00
9:15 AM,49.1,46.6,91,29.99,10.0,WSW,5.8,-,N/A,,Overcast,250,2012-12-04 14:15:00
9:35 AM,49.3,46.4,90,29.98,10.0,WSW,4.6,-,N/A,,Overcast,250,2012-12-04 14:35:00
9:55 AM,50.0,44.8,82,29.98,10.0,WSW,6.9,-,N/A,,Mostly Cloudy,250,2012-12-04 14:55:00
10:15 AM,50.0,42.8,76,29.98,10.0,WSW,8.1,-,N/A,,Scattered Clouds,250,2012-12-04 15:15:00
10:27 AM,50.2,42.6,75,29.98,10.0,WSW,9.2,-,N/A,,Mostly Cloudy,250,2012-12-04 15:27:00
10:57 AM,50.0,41.0,71,29.98,10.0,WSW,9.2,-,N/A,,Overcast,250,2012-12-04 15:57:00
11:16 AM,50.0,41.0,71,29.98,10.0,West,9.2,-,N/A,,Overcast,260,2012-12-04 16:16:00
11:36 AM,50.0,41.0,71,29.98,10.0,WSW,6.9,-,N/A,,Overcast,250,2012-12-04 16:36:00
11:56 AM,50.0,41.0,71,29.97,10.0,WSW,11.5,-,N/A,,Overcast,250,2012-12-04 16:56:00
12:16 PM,50.0,39.2,66,29.96,10.0,WSW,10.4,-,N/A,,Scattered Clouds,250,2012-12-04 17:16:00
12:36 PM,50.0,39.2,66,29.96,10.0,WSW,8.1,-,N/A,,Clear,250,2012-12-04 17:36:00
12:56 PM,50.0,39.2,66,29.96,10.0,WSW,11.5,-,N/A,,Clear,250,2012-12-04 17:56:00
1:17 PM,50.0,39.2,66,29.97,10.0,WSW,10.4,-,N/A,,Clear,250,2012-12-04 18:17:00
1:37 PM,50.0,39.2,66,29.96,10.0,West,11.5,17.3,N/A,,Clear,260,2012-12-04 18:37:00
1:57 PM,51.8,39.2,62,29.96,10.0,West,12.7,-,N/A,,Clear,260,2012-12-04 18:57:00
2:16 PM,51.8,39.2,62,29.96,10.0,West,12.7,18.4,N/A,,Clear,260,2012-12-04 19:16:00
2:36 PM,53.6,37.4,54,29.96,10.0,West,15.0,-,N/A,,Clear,270,2012-12-04 19:36:00
2:56 PM,51.8,37.4,58,29.97,10.0,West,9.2,-,N/A,,Clear,260,2012-12-04 19:56:00
3:11 PM,53.8,36.9,53,29.97,10.0,West,13.8,20.7,N/A,,Clear,260,2012-12-04 20:11:00
3:15 PM,53.8,36.5,52,29.97,10.0,West,10.4,18.4,N/A,,Clear,260,2012-12-04 20:15:00
3:35 PM,52.3,36.0,54,29.97,10.0,WSW,10.4,19.6,N/A,,Clear,250,2012-12-04 20:35:00
3:55 PM,51.6,36.3,56,29.97,10.0,SW,9.2,-,N/A,,Clear,230,2012-12-04 20:55:00
4:15 PM,51.8,36.1,55,29.98,10.0,WSW,9.2,-,N/A,,Clear,240,2012-12-04 21:15:00
4:35 PM,50.9,36.3,57,29.99,10.0,WSW,10.4,-,N/A,,Clear,250,2012-12-04 21:35:00
4:55 PM,50.2,32.9,52,29.99,10.0,WSW,11.5,17.3,N/A,,Clear,250,2012-12-04 21:55:00
5:15 PM,49.1,32.2,52,29.99,10.0,WSW,9.2,16.1,N/A,,Clear,250,2012-12-04 22:15:00
5:35 PM,48.2,32.2,54,30.00,10.0,WSW,6.9,-,N/A,,Clear,240,2012-12-04 22:35:00
5:55 PM,47.7,33.1,57,30.01,10.0,WSW,10.4,16.1,N/A,,Clear,240,2012-12-04 22:55:00
6:15 PM,47.1,33.8,60,30.02,10.0,WSW,11.5,18.4,N/A,,Clear,250,2012-12-04 23:15:00
6:36 PM,46.4,33.1,60,30.02,10.0,WSW,11.5,-,N/A,,Clear,250,2012-12-04 23:36:00
6:55 PM,46.0,32.9,60,30.02,10.0,West,10.4,-,N/A,,Clear,260,2012-12-04 23:55:00
7:15 PM,45.3,32.9,62,30.03,10.0,WSW,9.2,16.1,N/A,,Clear,250,2012-12-05 00:15:00
7:35 PM,44.8,33.4,64,30.03,10.0,WSW,8.1,-,N/A,,Clear,240,2012-12-05 00:35:00
7:55 PM,44.4,34.0,67,30.03,10.0,WSW,9.2,-,N/A,,Clear,250,2012-12-05 00:55:00
8:15 PM,44.6,34.7,68,30.04,10.0,WSW,10.4,-,N/A,,Clear,250,2012-12-05 01:15:00
8:35 PM,44.8,35.2,69,30.05,10.0,West,11.5,-,N/A,,Clear,260,2012-12-05 01:35:00
8:55 PM,44.6,35.6,71,30.04,10.0,West,13.8,-,N/A,,Clear,260,2012-12-05 01:55:00
9:15 PM,43.5,34.9,72,30.06,10.0,West,12.7,-,N/A,,Clear,280,2012-12-05 02:15:00
9:35 PM,43.2,34.0,70,30.06,10.0,West,12.7,-,N/A,,Clear,270,2012-12-05 02:35:00
9:55 PM,42.8,33.8,70,30.07,10.0,West,13.8,18.4,N/A,,Clear,280,2012-12-05 02:55:00
10:15 PM,42.8,31.1,63,30.08,10.0,WNW,12.7,20.7,N/A,,Clear,290,2012-12-05 03:15:00
10:35 PM,42.1,30.9,65,30.09,10.0,WNW,13.8,23.0,N/A,,Clear,290,2012-12-05 03:35:00
10:55 PM,40.6,30.9,68,30.10,10.0,WNW,9.2,-,N/A,,Clear,290,2012-12-05 03:55:00
11:15 PM,40.1,30.9,70,30.11,10.0,WNW,8.1,-,N/A,,Clear,290,2012-12-05 04:15:00
11:35 PM,39.2,30.6,71,30.12,10.0,WNW,10.4,-,N/A,,Clear,290,2012-12-05 04:35:00
11:55 PM,38.7,30.0,71,30.12,10.0,WNW,9.2,-,N/A,,Clear,300,2012-12-05 04:55:00